Location: ??????????
(41.2581°N, 22.8006°E)
Time: 14:23:10
(UTC+00:00)

Cosmos 2082 - Pass Details

Date: 13 December 2025
Orbit: 831 x 855 km, 71.0° (Epoch: 16 January)

Event Time Altitude Azimuth Distance (km) Brightness Sun altitude
Rises 17:13:28 0° 334° (NNW) 3,426 7.1 -24.2°
Reaches altitude 10° 17:15:55 10° 333° (NNW) 2,489 6.3 -24.7°
Maximum altitude 17:21:38 76° 249° (WSW) 884 3.8 -25.7°
Drops below altitude 10° 17:27:19 10° 165° (SSE) 2,478 6.0 -26.8°
Sets 17:29:46 0° 163° (SSE) 3,409 6.8 -27.2°
